Location: Beaver Brook Station
(42.3793°N, 71.2203°W)
Time: 22:10:25
(UTC+00:00)

N. Korean satellite - Visible Passes

Search period start: 22 January 2021 00:00
Search period end: 01 February 2021 00:00
Orbit: 452 x 502 km, 97.2° (Epoch: 22 January)

Date Brightness Start Highest point End Pass type
(mag) Time Alt. Az. Time Alt. Az. Time Alt. Az.
22 Jan 9.6 09:17:16 10° ENE 09:19:15 14° E 09:21:12 10° SE visible
22 Jan 7.2 10:49:33 10° N 10:52:40 31° WNW 10:55:44 10° SW visible
23 Jan 6.3 10:22:44 10° N 10:26:11 72° WNW 10:29:36 10° SSW visible
23 Jan 10.0 22:33:09 10° WSW 22:34:48 13° W 22:36:27 10° WNW visible
24 Jan 7.5 09:56:14 10° NNE 09:59:36 46° E 10:02:53 10° S visible
24 Jan 8.5 11:31:37 10° NW 11:32:28 11° WNW 11:33:19 10° WNW visible
25 Jan 9.0 09:30:12 10° NE 09:32:54 21° E 09:35:33 10° SE visible
25 Jan 7.7 11:03:26 10° NNW 11:06:08 21° WNW 11:08:47 10° WSW visible
26 Jan 6.6 10:36:22 10° N 10:39:41 45° WNW 10:42:57 10° SSW visible
27 Jan 6.5 10:09:41 10° NNE 10:13:08 74° ESE 10:16:32 10° S visible
27 Jan 9.7 22:19:09 10° SW 22:21:40 18° W 22:24:11 10° NW visible
28 Jan 8.3 09:43:23 10° NNE 09:46:29 31° E 09:49:33 10° SSE visible
28 Jan 8.1 11:17:31 10° NNW 11:19:32 15° WNW 11:21:32 10° WSW visible
29 Jan 9.6 09:17:45 10° ENE 09:19:43 15° E 09:21:42 10° SE visible
29 Jan 7.2 10:50:05 10° N 10:53:08 30° WNW 10:56:09 10° SW visible
30 Jan 6.3 10:23:12 10° N 10:26:38 70° WNW 10:30:00 10° SSW visible
30 Jan 10.1 22:33:51 10° WSW 22:35:18 12° W 22:36:45 10° WNW visible
31 Jan 7.4 09:56:41 10° NNE 10:00:01 47° E 10:03:19 10° S visible
